Helicity
77 73 93 132 119 110 -2 15 61 52 49 19 65 76 57 54 64 67 25 67 106 88 63 39 31 43 47 40 31 32 27 37 48 46 52 54 64 69 68 81 85 113 153 132 82 73 58 67 69
82 99 145 150 149 42 9 6 7 44 59 33 41 68 55 14 89 91 38 48 80 75 63 47 30 69 66 55 35 26 41 37 35 59 66 77 86 78 74 67 57 57 101 155 105 39 51 56 62
108 120 151 177 125 0 -7 -14 2 35 56 33 43 92 109 80 31 58 31 56 92 84 66 71 75 86 54 56 45 38 34 35 35 54 68 84 96 95 92 54 62 121 49 38 38 30 40 65 76
158 183 187 193 69 63 100 47 78 56 83 79 84 71 85 112 92 106 90 82 109 95 81 91 79 69 60 60 55 49 36 38 30 43 76 82 82 81 70 55 57 87 96 100 85 67 83 78 84
217 225 191 188 11 80 66 172 115 108 95 79 94 107 90 86 81 75 83 98 114 125 102 66 66 67 88 67 78 72 73 74 60 57 55 92 76 72 41 32 38 43 66 91 127 101 85 87 96
255 258 224 160 42 50 46 100 119 112 104 117 103 96 93 87 76 79 73 106 117 151 110 85 58 70 89 94 108 113 114 110 90 91 93 73 87 83 80 58 41 25 42 68 111 116 112 106 93
156 195 126 128 44 36 43 128 139 98 94 79 128 120 114 96 93 91 90 111 137 140 120 98 68 65 99 115 151 174 185 224 285 307 326 339 298 202 143 127 102 40 40 36 54 99 134 135 112
212 212 132 174 62 -18 123 39 100 67 59 131 106 127 123 112 105 124 160 141 153 175 188 147 95 77 76 157 261 329 306 271 254 237 236 246 256 259 230 183 154 144 110 85 80 97 140 140 108
309 248 148 149 29 49 108 35 115 157 112 136 121 158 164 124 127 145 199 203 197 241 255 191 185 109 160 266 358 329 256 232 209 206 166 190 190 196 194 239 253 219 179 174 153 121 99 118 141
365 277 206 194 69 70 78 49 39 98 105 110 106 106 149 122 149 144 128 154 190 216 266 263 287 320 369 380 269 284 257 231 214 171 137 137 134 145 149 153 172 183 173 154 113 106 122 103 114
312 257 249 182 128 143 106 86 136 114 115 83 80 78 97 99 142 136 121 113 238 278 369 343 340 274 269 248 272 264 279 243 240 169 117 94 107 113 115 112 116 107 114 87 84 113 142 151 125
359 198 225 103 132 164 152 100 132 114 76 115 112 98 71 62 82 126 158 224 229 337 386 428 372 413 330 287 300 238 261 236 236 245 189 96 118 113 113 109 103 108 93 100 94 122 146 164 179
254 234 147 179 147 133 91 111 118 109 108 130 127 87 52 30 69 93 159 226 266 285 334 348 367 379 362 338 278 249 230 254 227 179 203 157 112 74 110 106 115 125 127 126 129 138 163 178 180
275 236 176 125 102 154 120 94 108 131 97 117 115 101 74 21 39 94 142 204 243 244 273 327 365 342 336 371 342 309 293 308 288 195 205 178 83 76 90 103 121 143 153 157 159 154 176 194 192
177 227 130 160 139 115 109 73 89 99 77 99 114 93 73 74 60 74 96 157 234 248 283 292 279 432 375 357 378 360 310 287 277 290 120 115 134 61 114 162 176 138 162 177 179 194 199 212 205
128 195 190 141 141 173 104 56 52 75 85 91 85 106 99 84 58 83 94 139 204 259 244 308 308 394 382 388 403 409 456 417 305 232 190 242 152 77 79 144 183 193 171 191 209 203 224 234 227
285 295 217 209 99 180 156 112 98 148 50 56 65 75 82 78 86 95 105 111 179 236 294 309 300 318 371 363 387 429 312 298 186 270 205 208 152 117 77 114 170 203 230 223 222 264 242 227 235
337 220 224 149 210 191 189 133 156 115 85 65 66 103 122 144 107 114 114 192 208 234 289 313 349 358 388 440 420 433 395 382 285 237 193 176 151 131 131 136 145 155 229 244 274 280 307 280 252
144 131 108 122 205 51 65 84 98 121 127 135 156 166 144 171 188 108 154 255 320 298 310 333 359 337 381 417 494 454 410 357 362 339 242 194 203 148 136 148 165 174 198 212 255 290 326 390 320
194 174 108 208 179 104 87 74 73 111 156 166 171 183 172 161 150 139 129 259 281 306 334 331 325 326 297 335 455 440 440 378 402 337 226 198 193 193 140 138 144 162 190 204 199 257 236 264 287
224 160 142 142 147 138 153 142 141 155 172 180 200 222 195 178 149 142 179 238 266 305 307 326 328 348 349 388 429 373 421 474 419 289 287 374 313 230 212 156 162 143 179 177 195 205 256 266 225
189 186 230 285 221 245 134 171 81 121 157 149 170 170 166 159 161 146 196 244 285 320 332 349 366 388 357 372 373 256 268 256 262 341 344 352 273 281 281 204 170 160 178 201 186 191 224 185 168
151 151 9 86 135 208 204 191 140 193 151 182 189 187 190 171 145 139 241 302 334 360 391 391 388 371 364 326 242 344 398 392 361 347 285 325 308 323 296 229 198 191 178 200 212 208 162 215 213
159 184 219 169 183 217 149 150 120 150 208 222 205 201 211 239 233 267 316 343 335 356 380 384 388 390 380 357 337 352 339 306 343 357 372 380 380 354 283 260 258 223 208 178 204 197 206 206 201
181 133 224 280 309 315 171 190 233 169 174 178 146 166 229 251 227 215 236 286 295 314 340 340 337 366 350 326 327 280 257 220 263 276 261 250 250 266 231 287 286 248 228 200 182 210 191 174 191
124 155 275 332 304 268 184 212 186 162 95 95 159 174 183 214 229 218 188 202 232 263 285 312 316 320 301 306 312 280 252 249 257 260 268 254 222 265 264 300 280 259 246 224 214 210 205 188 183
129 207 198 256 357 212 225 179 141 112 136 75 61 110 179 190 195 193 205 239 228 251 295 297 331 353 327 291 292 300 277 248 243 220 239 260 257 271 267 267 247 257 243 227 201 199 190 188 194
130 102 94 80 191 299 236 229 214 134 98 113 101 132 153 174 220 223 251 257 278 356 355 353 343 346 349 354 332 280 241 237 234 223 204 210 228 236 240 246 243 231 222 208 193 190 182 178 193
136 104 101 126 196 258 233 216 122 90 64 91 126 152 193 245 273 294 324 338 367 373 405 433 410 384 352 283 246 202 173 151 157 186 192 194 185 183 187 186 189 189 193 187 176 173 164 170 170
135 245 237 150 131 214 192 126 134 78 90 111 135 174 207 239 284 305 318 313 319 371 384 362 331 279 230 212 220 222 205 192 195 182 178 162 166 158 156 154 159 167 176 179 184 179 167 160 159
Wind_Speed
13 15 16 17 19 29 19 31 34 28 31 29 28 30 25 42 21 27 29 18 20 14 9 15 15 25 22 16 19 21 19 16 15 15 15 12 12 14 14 17 17 18 18 18 18 18 18 19 21
14 13 21 28 30 22 20 23 23 22 25 23 24 35 37 40 37 32 20 16 2 11 8 13 8 20 16 15 14 14 15 16 22 16 20 18 18 18 19 20 24 22 19 16 18 15 14 16 18
18 21 26 34 37 25 34 24 23 20 23 21 19 30 33 37 40 32 29 8 11 9 4 3 11 12 11 13 10 10 9 13 18 25 23 23 22 19 17 15 21 20 23 20 22 27 19 17 16
23 30 36 43 36 40 37 32 27 23 25 26 24 25 35 34 31 30 27 5 13 10 4 4 9 7 7 8 9 4 7 11 17 24 26 25 25 16 15 19 18 19 18 18 23 22 16 17 15
29 37 45 52 46 52 49 35 24 23 23 26 25 30 32 32 33 26 11 11 14 7 4 7 8 8 5 5 5 6 8 11 16 20 25 26 21 19 19 19 19 21 22 14 18 17 23 14 18
35 44 51 52 50 64 60 50 45 34 28 30 30 35 35 25 22 19 6 10 10 8 7 6 9 10 11 8 6 9 12 14 17 19 20 20 19 19 22 22 22 21 23 25 17 26 17 21 19
39 46 53 60 67 68 55 53 48 40 35 31 34 39 35 27 20 14 10 11 11 12 11 7 8 11 14 14 12 12 17 19 21 21 20 18 18 17 19 21 24 23 25 24 23 24 19 20 15
42 54 57 61 56 66 54 49 57 57 57 44 40 48 40 25 14 11 16 14 16 17 14 9 10 11 12 11 18 20 19 17 17 17 15 16 16 16 17 16 18 22 22 24 24 23 16 13 12
44 53 46 41 44 51 44 48 47 49 47 46 45 51 40 29 18 17 19 22 21 19 18 13 11 13 11 14 16 15 16 14 12 9 9 9 10 11 14 16 16 19 21 22 22 21 19 13 12
50 53 50 41 58 50 49 47 44 46 46 49 45 42 37 28 28 26 25 25 23 23 21 19 16 13 13 12 11 9 8 8 5 4 6 9 10 11 12 15 15 17 18 19 18 18 15 13 15
55 62 49 51 58 54 49 50 43 43 42 43 41 39 33 28 32 32 31 27 28 24 21 21 20 17 17 14 13 14 12 11 10 11 12 10 11 14 17 18 21 22 22 20 18 17 17 15 15
76 65 68 58 59 58 54 54 56 54 51 44 37 30 28 29 29 34 35 32 31 28 24 20 22 21 19 17 18 17 14 14 13 14 13 12 13 14 16 19 20 22 21 18 16 16 14 14 14
77 71 64 60 57 58 62 64 61 59 52 40 34 31 30 31 32 31 35 36 34 31 26 25 23 21 20 20 21 20 18 15 15 13 13 14 12 14 16 18 20 20 19 17 14 13 14 14 14
58 73 76 71 70 63 67 67 62 63 56 55 48 44 39 33 31 33 37 38 38 34 30 27 23 22 20 19 20 21 19 17 18 14 11 17 15 14 16 18 20 20 20 18 16 12 13 13 14
74 71 77 82 68 70 65 91 80 70 64 63 57 52 46 40 36 34 37 42 41 38 34 32 29 25 22 21 19 18 20 20 18 15 17 17 18 16 18 19 20 21 20 17 14 13 12 13 15
70 80 93 67 69 62 56 114 75 72 72 68 64 60 55 52 47 44 39 40 42 40 38 34 32 30 26 24 23 23 21 21 19 17 15 18 17 16 17 21 22 21 21 19 18 16 15 16 18
70 94 93 83 61 61 68 90 75 56 68 83 83 78 70 62 55 47 41 40 42 42 40 38 34 32 27 24 23 26 22 21 21 19 21 20 19 18 16 20 21 21 22 22 21 21 22 20 20
84 86 83 82 72 68 76 87 69 65 74 77 73 71 68 61 52 46 45 41 39 39 39 36 35 31 29 28 26 23 27 26 22 21 23 22 25 24 20 20 21 22 21 23 24 23 23 24 23
77 81 87 77 65 71 86 87 77 65 64 66 64 64 63 63 57 50 48 46 43 42 40 39 36 32 30 31 31 31 32 27 29 27 24 23 22 24 22 22 22 23 23 23 21 22 22 27 27
82 81 84 68 63 71 76 85 74 68 62 59 59 58 57 55 55 55 49 48 47 46 45 42 40 38 35 34 34 33 28 30 27 26 26 27 26 26 27 22 24 24 25 25 25 28 30 30 36
82 86 79 76 63 65 67 79 73 66 64 60 56 55 55 55 53 52 54 52 49 48 47 45 42 40 37 34 33 29 24 27 29 31 30 30 29 28 26 26 25 27 28 28 28 28 33 37 39
86 62 62 67 65 80 68 92 80 68 67 64 63 62 59 56 52 51 51 50 49 48 45 44 42 41 39 37 37 38 35 34 35 33 30 28 28 29 28 28 29 30 31 30 32 33 35 36 40
84 68 71 65 70 73 76 83 88 63 78 74 63 59 55 54 52 50 51 47 45 43 43 42 40 39 37 37 39 37 34 35 32 28 28 27 29 28 30 28 29 30 30 33 35 37 38 40 40
48 51 60 71 76 99 87 87 84 76 72 67 62 59 53 47 42 40 41 39 40 38 40 40 40 40 38 37 36 35 33 32 32 31 33 32 31 31 32 29 29 30 31 33 34 36 37 39 40
43 45 61 71 79 86 70 77 69 53 49 50 48 47 43 39 36 32 34 37 38 37 36 36 36 36 34 33 33 31 30 30 30 30 29 29 30 30 32 30 30 32 32 33 34 35 37 39 38
45 49 55 64 66 64 44 70 60 47 39 35 35 34 33 33 32 31 28 26 27 29 31 32 32 32 30 29 29 27 27 28 28 27 27 28 30 31 31 30 29 31 30 31 31 33 34 33 35
43 55 36 42 45 50 49 42 38 33 34 25 24 27 29 28 27 28 25 24 23 24 26 27 27 26 25 25 24 23 24 25 25 26 28 29 28 28 29 29 28 28 28 29 29 30 30 31 32
36 33 50 42 47 55 51 52 46 41 33 30 25 23 22 20 19 21 22 23 24 23 23 22 22 21 20 19 19 20 21 22 21 23 25 26 27 26 27 27 27 26 25 25 25 26 28 29 32
36 40 43 41 47 54 54 54 39 36 32 28 24 19 17 17 15 15 16 19 20 20 22 21 19 17 17 18 20 20 21 21 21 22 21 22 21 21 22 22 23 23 24 23 24 24 25 26 28
23 39 42 52 47 44 50 49 44 41 30 25 24 20 17 14 15 15 15 13 15 17 18 18 17 17 17 18 18 18 17 17 16 16 16 15 16 16 17 18 19 20 22 23 24 26 27 29 31
Wind_Direction
296 301 295 286 292 293 275 290 287 295 289 284 280 262 269 255 273 278 289 278 268 125 127 116 110 112 105 96 94 92 88 85 78 73 64 49 38 33 35 37 31 35 38 37 44 43 45 46 46
281 284 285 283 280 270 273 280 285 292 302 305 282 264 264 260 264 277 302 285 249 128 131 119 118 112 102 101 94 85 81 83 92 79 75 68 62 58 58 52 40 39 39 30 37 44 39 43 41
270 271 274 277 272 243 282 289 283 284 296 302 295 275 269 266 266 270 279 289 119 128 180 143 124 112 103 103 102 87 74 80 84 90 83 76 69 62 50 25 34 40 46 53 55 61 49 39 29
264 271 279 269 259 266 272 288 292 287 281 287 292 286 273 274 276 269 269 120 130 133 194 159 129 118 112 108 107 90 75 78 91 96 88 82 75 56 33 20 21 21 33 42 45 44 37 32 22
263 271 264 266 258 264 262 276 293 291 279 278 279 285 283 277 274 275 259 143 141 200 170 139 135 119 125 126 109 94 89 87 94 93 92 87 72 58 38 28 27 34 40 32 36 29 35 23 29
261 267 266 257 259 260 261 261 271 280 288 283 276 279 279 292 280 276 206 176 177 208 212 193 141 117 121 119 116 104 98 96 95 90 86 77 71 57 49 42 38 39 41 41 24 45 29 36 31
254 262 258 267 264 260 263 261 260 270 272 275 286 274 281 278 281 262 203 210 210 226 230 188 153 126 118 117 114 104 99 95 92 87 81 69 60 46 39 34 31 41 44 37 31 44 33 31 26
261 269 264 263 262 264 265 264 266 260 264 275 277 272 273 275 266 239 231 223 230 233 234 192 166 143 131 113 108 107 106 101 99 91 80 64 44 32 23 13 11 21 28 35 33 29 16 8 16
262 262 247 244 258 265 266 262 266 272 265 267 268 268 274 270 255 232 222 234 231 229 226 200 186 157 142 125 124 120 114 109 100 79 61 23 358 359 5 1 4 11 20 23 23 18 28 11 357
249 249 246 259 265 269 263 262 266 264 262 265 268 267 271 258 249 228 209 205 214 215 219 215 201 177 156 166 166 182 207 228 246 287 328 350 348 338 343 342 337 337 347 354 354 351 345 336 315
252 250 250 256 266 264 263 261 261 261 261 266 265 261 260 256 245 236 230 221 227 217 215 213 205 194 176 184 213 228 237 243 260 276 295 314 317 306 303 304 302 305 309 316 327 322 325 335 312
261 256 264 263 266 262 259 262 260 259 264 270 269 264 257 251 240 236 232 235 229 229 218 214 210 208 213 218 229 233 236 248 261 276 284 295 299 303 301 299 300 301 307 313 318 319 326 338 331
256 261 263 264 261 263 261 257 259 258 259 266 265 264 261 256 250 238 236 239 231 228 226 218 210 203 213 220 230 239 244 250 254 267 283 289 294 296 299 299 298 298 302 307 316 317 316 324 332
266 261 263 262 259 262 259 259 257 256 257 259 260 259 259 255 248 241 237 231 228 227 224 221 221 216 215 226 232 238 242 243 255 265 273 282 287 295 295 293 293 293 294 297 300 308 309 315 318
259 267 263 259 261 259 260 258 254 257 258 257 256 257 257 255 249 244 235 232 226 227 225 224 216 221 221 225 233 239 246 246 256 260 265 277 284 294 291 289 287 288 291 293 297 299 303 305 309
258 260 259 262 255 257 253 257 257 257 255 256 255 255 255 254 251 251 242 233 229 224 224 223 235 230 225 227 238 243 246 250 249 257 271 276 279 289 297 286 285 284 283 284 286 287 288 293 297
256 258 258 259 256 258 249 263 260 260 254 255 255 256 257 256 251 245 239 236 230 224 222 224 226 229 233 228 238 245 237 241 259 259 265 271 278 285 293 288 285 284 280 279 277 280 281 282 290
256 259 262 259 257 254 257 258 263 261 258 255 254 253 253 250 246 243 239 237 228 225 225 225 228 224 226 242 231 241 249 256 258 255 267 265 274 280 288 286 279 279 278 278 277 274 281 282 284
263 261 261 261 260 256 256 258 257 259 257 253 252 252 253 251 249 246 242 238 228 226 225 225 223 227 227 228 236 243 241 249 259 265 264 266 274 277 282 282 278 277 274 272 273 275 274 277 280
255 259 259 263 260 259 259 257 256 255 257 255 253 252 252 253 248 243 239 236 232 229 228 228 229 230 235 236 244 238 238 254 261 259 267 272 277 279 280 278 276 275 272 269 268 271 272 278 281
252 253 256 259 258 260 260 259 255 256 257 256 256 255 256 254 249 244 239 236 233 231 229 229 229 229 233 234 232 234 243 250 252 264 267 273 278 280 280 283 277 273 271 268 270 271 276 274 280
256 255 253 255 251 257 253 259 254 254 254 253 254 255 256 254 252 248 242 237 234 234 233 230 229 231 231 232 230 230 241 241 255 258 265 273 276 280 281 283 280 277 272 268 269 275 278 279 278
259 262 255 255 255 257 256 259 258 257 254 253 254 256 256 255 252 248 244 240 237 233 231 231 229 229 229 229 230 241 245 252 247 253 266 271 276 281 282 282 283 279 275 274 274 275 276 280 279
259 260 261 258 256 255 253 253 259 258 258 258 256 256 256 253 250 248 244 240 237 234 232 230 228 231 232 233 236 238 235 239 246 254 260 266 273 279 282 284 284 282 279 277 277 279 281 282 282
247 242 252 251 249 254 251 251 259 265 268 263 256 255 255 252 245 243 241 236 234 230 229 227 226 227 228 232 235 238 237 242 246 248 254 263 269 276 279 284 284 282 282 281 280 281 282 283 284
238 238 252 252 248 250 252 253 259 266 275 270 260 257 254 251 245 240 236 229 224 223 223 223 222 221 225 227 230 236 240 244 248 253 255 263 269 276 281 285 285 285 284 284 283 284 285 287 287
249 244 258 261 260 250 248 263 269 271 259 265 261 255 253 250 245 237 233 228 221 218 218 215 212 217 219 222 227 236 241 244 247 253 261 267 274 278 281 284 285 287 287 286 285 285 286 288 290
258 255 248 259 251 251 250 257 263 254 252 254 259 258 253 250 243 237 229 229 229 225 219 217 213 209 212 224 236 242 248 251 252 257 263 269 275 277 279 281 283 284 287 289 289 289 289 289 292
264 257 261 264 264 256 253 257 269 263 252 249 252 257 252 242 235 233 228 230 223 216 215 210 209 212 225 236 244 248 252 253 257 261 266 271 274 276 278 280 281 283 285 289 290 292 294 294 295
291 273 269 260 258 260 261 261 279 262 253 249 247 247 247 241 231 229 221 212 201 201 207 214 222 230 241 249 252 255 255 256 257 260 266 269 275 280 282 282 282 283 286 288 289 290 292 293 294